Tracking 19795 objects as of 20-Jul-2019
HD Live streaming from Space Station
objects crossing your sky now

CZ-4C DEB

Track CZ-4C DEB now!
10-day predictions


NORAD ID: 39243
Int'l Code: 2013-046E
Perigee: 943.0 km
Apogee: 1,257.6 km
Inclination: 63.4 °
Period: 107.1 minutes
Semi major axis: 7471 km
RCS: Unknown
Launch date: September 1, 2013
Source: People's Republic of China (PRC)
Launch site: Jiuquan Satellite Launch Center, China (JSC)

Note: This is SATELLITE DEBRIS
aabbcc
Your satellite tracking list
Your tracking list is empty




NASA's NSSDC Master Catalog

Two Line Element Set (TLE):
1 39243U 13046E   19200.91573172 -.00000105 +00000-0 -21918-4 0  9995
2 39243 063.4073 114.6897 0210572 006.7549 353.6237 13.44334278288590
Source of the keplerian elements: AFSPC